Tracking 20239 objects as of 23-Jan-2020
HD Live streaming from Space Station
objects crossing your sky now

METEOR 2-17 DEB

Track METEOR 2-17 DEB now!
10-day predictions


NORAD ID: 38543
Int'l Code: 1988-005AW
Perigee: 824.2 km
Apogee: 848.4 km
Inclination: 82.5 °
Period: 101.5 minutes
Semi major axis: 7207 km
RCS: 0.011 m2 (small)
Launch date: January 30, 1988
Source: Commonwealth of Independent States (former USSR) (CIS)
Launch site: PLESETSK MISSILE AND SPACE COMPLEX (PKMTR)

Note: This is SATELLITE DEBRIS
aabbcc
Your satellite tracking list
Your tracking list is empty




NASA's NSSDC Master Catalog

Two Line Element Set (TLE):
1 38543U 88005AW  20022.19545293 +.00000926 +00000-0 +43665-3 0  9992
2 38543 082.5364 197.6175 0016736 247.7160 112.2245 14.18877374303237
Source of the keplerian elements: AFSPC